Windom, MN

9:16 AM CDT on July 26, 2017 (GMT -0500)
Windom Municipal

Weather History for KMWM - June, 2014

Change the Weather History Date:

Tuesday, June 10, 2014

  Actual Average Record
Temperature  
Mean Temperature 66 °F -  
Max Temperature 78 °F 79 °F 98 °F (1956)
Min Temperature 53 °F 54 °F 42 °F (1979)
Growing Degree Days 16 (Base 50)    
Moisture  
Dew Point 54 °F    
Average Humidity 66    
Maximum Humidity 94    
Minimum Humidity 41    
Precipitation  
Precipitation 0.00 in - - ()
Sea Level Pressure  
Sea Level Pressure 29.91 in    
Wind  
Wind Speed 3 mph (East)    
Max Wind Speed 9 mph    
Max Gust Speed -    
Visibility 10 miles    
Events Rain    
Averages and records for this station are not official NWS values.
T = Trace of Precipitation, MM = Missing Value Source: NWS Daily Summary

Daily Weather History Graph

Daily Weather History Graph

Search for Another Location

Airport or City:

Trip Planner

Search our weather history database for the weather conditions in past years. The results will help you decide how hot, cold, wet, or windy it might be!

Date:

Astronomy

Jun. 10, 2014 Rise Set
Actual Time 5:37 AM CDT 9:02 PM CDT
Civil Twilight 5:01 AM CDT 9:38 PM CDT
Nautical Twilight 4:14 AM CDT 10:25 PM CDT
Astronomical Twilight 3:15 AM CDT 11:24 PM CDT
Moon 6:24 PM CDT (6/10) 3:49 AM CDT (6/10)
Length of Visible Light 16h 36m
Length of Day
15h 24m
Waxing Gibbous, 92% of the Moon is Illuminated
Jun 10
Waxing Gibbous
Jun 12
Full
Jun 19
Last Quarter
Jun 27
New
Jul 5
First Quarter

Hourly Weather History & Observations

Time (CDT) Temp. Dew Point Humidity Pressure Visibility Wind Dir Wind Speed Gust Speed Precip Events Conditions
12:14 AM 57.2 °F 53.6 °F 88% 29.98 in 10.0 mi NE 4.6 mph - N/A   Clear
12:33 AM 57.2 °F 53.6 °F 88% 29.98 in 10.0 mi Calm Calm - N/A   Clear
12:53 AM 55.4 °F 51.8 °F 88% 29.98 in 10.0 mi Calm Calm - N/A   Clear
1:14 AM 57.2 °F 53.6 °F 88% 29.98 in 10.0 mi Calm Calm - N/A   Clear
1:33 AM 57.2 °F 53.6 °F 88% 29.97 in 10.0 mi East 3.5 mph - N/A   Clear
1:53 AM 57.2 °F 51.8 °F 82% 29.96 in 10.0 mi East 4.6 mph - N/A   Clear
2:14 AM 55.4 °F 51.8 °F 88% 29.96 in 10.0 mi East 4.6 mph - N/A   Clear
2:33 AM 55.4 °F 51.8 °F 88% 29.95 in 10.0 mi East 4.6 mph - N/A   Clear
2:53 AM 55.4 °F 51.8 °F 88% 29.95 in 10.0 mi ENE 4.6 mph - N/A   Clear
3:14 AM 55.4 °F 51.8 °F 88% 29.94 in 10.0 mi ENE 5.8 mph - N/A   Clear
3:33 AM 55.4 °F 51.8 °F 88% 29.95 in 10.0 mi ENE 4.6 mph - N/A   Clear
3:53 AM 55.4 °F 51.8 °F 88% 29.95 in 10.0 mi NE 3.5 mph - N/A   Clear
4:14 AM 53.6 °F 51.8 °F 94% 29.95 in 10.0 mi Calm Calm - N/A   Clear
4:33 AM 55.4 °F 51.8 °F 88% 29.95 in 10.0 mi Calm Calm - N/A   Clear
4:53 AM 53.6 °F 51.8 °F 94% 29.95 in 10.0 mi ENE 3.5 mph - N/A   Clear
5:13 AM 55.4 °F 51.8 °F 88% 29.95 in 10.0 mi East 3.5 mph - N/A   Clear
5:33 AM 55.4 °F 51.8 °F 88% 29.95 in 10.0 mi ENE 3.5 mph - N/A   Clear
5:53 AM 53.6 °F 51.8 °F 94% 29.95 in 10.0 mi Calm Calm - N/A   Clear
6:13 AM 53.6 °F 51.8 °F 94% 29.95 in 7.0 mi NE 3.5 mph - N/A   Clear
6:34 AM 55.4 °F 51.8 °F 88% 29.95 in 10.0 mi ENE 3.5 mph - N/A   Clear
6:53 AM 55.4 °F 53.6 °F 94% 29.95 in 7.0 mi Calm Calm - N/A   Clear
7:13 AM 59.0 °F 55.4 °F 88% 29.95 in 10.0 mi Calm Calm - N/A   Clear
7:33 AM 60.8 °F 55.4 °F 82% 29.95 in 10.0 mi ENE 4.6 mph - N/A   Clear
7:53 AM 62.6 °F 55.4 °F 77% 29.95 in 10.0 mi East 8.1 mph - N/A   Clear
8:14 AM 64.4 °F 55.4 °F 73% 29.95 in 10.0 mi East 5.8 mph - N/A   Clear
8:53 AM 66.2 °F 53.6 °F 64% 29.95 in 10.0 mi ESE 5.8 mph - N/A   Clear
9:14 AM 68.0 °F 53.6 °F 60% 29.95 in 10.0 mi Calm Calm - N/A   Clear
9:33 AM 69.8 °F 48.2 °F 46% 29.95 in 10.0 mi Calm Calm - N/A   Clear
10:14 AM 71.6 °F 46.4 °F 41% 29.94 in 10.0 mi ENE 5.8 mph - N/A   Clear
10:33 AM 71.6 °F 46.4 °F 41% 29.94 in 10.0 mi Calm Calm - N/A   Clear
10:53 AM 73.4 °F 51.8 °F 47% 29.94 in 10.0 mi East 6.9 mph - N/A   Clear
11:14 AM 73.4 °F 53.6 °F 50% 29.94 in 10.0 mi Calm Calm - N/A   Clear
11:33 AM 71.6 °F 53.6 °F 53% 29.94 in 10.0 mi NE 8.1 mph - N/A   Clear
12:13 PM 73.4 °F 55.4 °F 53% 29.93 in 10.0 mi ENE 5.8 mph - N/A   Scattered Clouds
12:33 PM 73.4 °F 55.4 °F 53% 29.92 in 10.0 mi SE 3.5 mph - N/A   Scattered Clouds
12:54 PM 73.4 °F 55.4 °F 53% 29.92 in 10.0 mi ESE 3.5 mph - N/A   Scattered Clouds
1:13 PM 73.4 °F 55.4 °F 53% 29.91 in 10.0 mi ESE 5.8 mph - N/A   Mostly Cloudy
1:33 PM 73.4 °F 53.6 °F 50% 29.91 in 10.0 mi ENE 6.9 mph - N/A   Mostly Cloudy
2:13 PM 73.4 °F 53.6 °F 50% 29.90 in 10.0 mi ENE 5.8 mph - N/A   Mostly Cloudy
2:33 PM 75.2 °F 53.6 °F 47% 29.90 in 10.0 mi ESE 4.6 mph - N/A   Scattered Clouds
2:54 PM 75.2 °F 55.4 °F 50% 29.90 in 10.0 mi ESE 4.6 mph - N/A   Scattered Clouds
3:13 PM 77.0 °F 55.4 °F 47% 29.89 in 10.0 mi East 3.5 mph - N/A   Scattered Clouds
3:33 PM 75.2 °F 53.6 °F 47% 29.89 in 10.0 mi ESE 4.6 mph - N/A   Clear
4:13 PM 77.0 °F 53.6 °F 44% 29.88 in 10.0 mi Calm Calm - N/A   Scattered Clouds
4:33 PM 78.8 °F 53.6 °F 42% 29.88 in 10.0 mi Calm Calm - N/A   Mostly Cloudy
4:53 PM 75.2 °F 55.4 °F 50% 29.88 in 10.0 mi North 5.8 mph - N/A   Overcast
5:13 PM 73.4 °F 55.4 °F 53% 29.88 in 7.0 mi Calm Calm - N/A   Overcast
5:34 PM 75.2 °F 53.6 °F 47% 29.88 in 10.0 mi Calm Calm - N/A Rain Light Rain
5:53 PM 75.2 °F 53.6 °F 47% 29.87 in 10.0 mi Calm Calm - N/A   Mostly Cloudy
6:13 PM 75.2 °F 53.6 °F 47% 29.87 in 10.0 mi Calm Calm - N/A   Mostly Cloudy
6:34 PM 75.2 °F 55.4 °F 50% 29.86 in 10.0 mi Calm Calm - N/A   Scattered Clouds
6:53 PM 75.2 °F 57.2 °F 53% 29.86 in 10.0 mi NNE 3.5 mph - N/A   Scattered Clouds
7:14 PM 73.4 °F 55.4 °F 53% 29.86 in 10.0 mi NNE 6.9 mph - N/A   Clear
7:33 PM 75.2 °F 57.2 °F 53% 29.86 in 10.0 mi NNE 6.9 mph - N/A   Scattered Clouds
7:53 PM 75.2 °F 57.2 °F 53% 29.86 in 7.0 mi NNE 5.8 mph - N/A   Mostly Cloudy
8:14 PM 73.4 °F 57.2 °F 57% 29.85 in 5.0 mi ENE 6.9 mph - N/A   Haze
8:33 PM 73.4 °F 57.2 °F 57% 29.85 in 10.0 mi ENE 4.6 mph - N/A Rain Rain
8:53 PM 71.6 °F 59.0 °F 64% 29.85 in 10.0 mi East 3.5 mph - N/A   Overcast
9:13 PM 71.6 °F 59.0 °F 64% 29.85 in 10.0 mi Calm Calm - N/A   Mostly Cloudy
9:33 PM 69.8 °F 60.8 °F 73% 29.85 in 10.0 mi Calm Calm - N/A   Mostly Cloudy
10:13 PM 71.6 °F 57.2 °F 60% 29.85 in 10.0 mi SE 4.6 mph - N/A   Overcast
10:33 PM 69.8 °F 57.2 °F 64% 29.85 in 10.0 mi ESE 4.6 mph - N/A   Mostly Cloudy
10:54 PM 69.8 °F 57.2 °F 64% 29.85 in 10.0 mi SSE 4.6 mph - N/A   Scattered Clouds
11:13 PM 69.8 °F 55.4 °F 60% 29.85 in 10.0 mi SSE 9.2 mph - N/A   Mostly Cloudy
11:33 PM 69.8 °F 55.4 °F 60% 29.85 in 10.0 mi SE 6.9 mph - N/A   Overcast
11:54 PM 68.0 °F 57.2 °F 68% 29.85 in 10.0 mi SE 5.8 mph - N/A   Mostly Cloudy